Location: Aalsum
(53.3404°N, 6.0062°E)
Time: 06:17:01
(UTC+00:00)

BREEZE-M DEB (TANK) - Pass Details

Date: 28 January 2023
Orbit: 426 x 13838 km, 45.9° (Epoch: 20 March)

Event Time Altitude Azimuth Distance (km) Brightness Sun altitude
Rises 17:57:00 0° 243° (WSW) 2,424 7.1 -15.6°
Reaches altitude 10° 17:58:40 10° 232° (SW) 1,697 5.8 -15.9°
Maximum altitude 18:01:44 35° 163° (SSE) 1,143 3.8 -16.3°
Enters shadow 18:05:00 20° 111° (ESE) 2,227 4.9 -16.8°
